Date String (YYYY-MM-DD hh:mm:ss) UTC,Instrument flags,absolute air pressure of the measurement (hPa),sample flow rate (lpm),inlet stack bypass flow (lpm),air temperature of the measurement (°C),ambient temperature measured by the external sensor (°C),aerosol sample conditioner tube jacket temperature (°C),OPC LED temperature (°C),internal box temperature (°C),relative humidity of the measurement (%),span deviation,mass concentration of particles derived from Lorenz-Mie calculation of OPC scattering (μg/m³),mass concentration of particles derived from Lorenz-Mie calculation of OPC scattering (μg/m³),mass concentration of particles derived from Lorenz-Mie calculation of OPC scattering (μg/m³)
DateTimeUTC,F1_M11,P_M11,Q1_M11,Q2_M11,T1_M11,T2_M11,T3_M11,T4_M11,T5_M11,U1_M11,ZSPAN_M11,X2_M11,X0_M11,X1_M11
2024-05-26 23:00:00,SystemResetWarning,0826.9,5.00,000.00,030.6,029.9,000.0,038.8,032.2,010.2,0000.0,0002.23,0006.14,0001.70
2024-05-26 23:01:00,SystemResetWarning,0826.9,4.99,000.00,030.6,029.9,000.0,038.8,032.2,010.1,0000.0,0002.22,0005.85,0001.69
2024-05-26 23:02:00,SystemResetWarning,0826.9,4.99,000.00,030.6,029.9,000.0,038.8,032.3,010.1,0000.0,0002.19,0005.66,0001.69
2024-05-26 23:03:00,SystemResetWarning,0826.9,5.00,000.00,030.6,029.9,000.0,038.8,032.3,010.3,0000.0,0002.20,0005.68,0001.69
2024-05-26 23:04:00,SystemResetWarning,0827.0,5.02,000.00,030.6,029.9,000.0,038.8,032.3,010.2,0000.0,0002.22,0005.71,0001.70
2024-05-26 23:05:00,SystemResetWarning,0826.9,5.01,000.00,030.6,029.9,000.0,038.9,032.3,010.2,0000.0,0002.22,0005.35,0001.69
2024-05-26 23:06:00,SystemResetWarning,0827.0,4.99,000.00,030.6,029.9,000.0,038.9,032.3,010.2,0000.0,0002.25,0005.29,0001.69
2024-05-26 23:07:00,SystemResetWarning,0827.0,5.00,000.00,030.7,030.0,000.0,038.9,032.3,010.5,0000.0,0002.25,0005.55,0001.70
2024-05-26 23:08:00,SystemResetWarning,0826.9,4.99,000.00,030.7,030.0,000.0,038.9,032.3,010.7,0000.0,0002.23,0004.71,0001.68
2024-05-26 23:09:00,SystemResetWarning,0827.0,5.01,000.00,030.7,030.0,000.0,038.9,032.4,011.0,0000.0,0002.27,0004.84,0001.69
2024-05-26 23:10:00,SystemResetWarning,0827.0,5.01,000.00,030.7,030.0,000.0,038.9,032.4,011.0,0000.0,0002.29,0004.40,0001.72
2024-05-26 23:11:00,SystemResetWarning,0827.0,5.00,000.00,030.7,030.0,000.0,038.9,032.4,011.0,0000.0,0002.35,0004.02,0001.75
2024-05-26 23:12:00,SystemResetWarning,0827.0,4.99,000.00,030.7,030.0,000.0,038.9,032.4,011.0,0000.0,0002.36,0004.02,0001.76
2024-05-26 23:13:00,SystemResetWarning,0827.0,4.99,000.00,030.7,030.0,000.0,039.0,032.4,010.7,0000.0,0002.36,0004.02,0001.77
2024-05-26 23:14:00,SystemResetWarning,0827.0,5.01,000.00,030.7,030.0,000.0,039.0,032.4,011.0,0000.0,0002.37,0004.64,0001.78
2024-05-26 23:15:00,SystemResetWarning,0827.0,5.01,000.00,030.8,030.0,000.0,039.0,032.4,011.4,0000.0,0002.39,0004.81,0001.80
2024-05-26 23:16:00,SystemResetWarning,0827.0,5.00,000.00,030.8,030.1,000.0,039.0,032.5,011.4,0000.0,0002.41,0004.82,0001.82
2024-05-26 23:17:00,SystemResetWarning,0826.9,4.99,000.00,030.8,030.1,000.0,039.0,032.5,011.1,0000.0,0002.37,0004.68,0001.83
2024-05-26 23:18:00,SystemResetWarning,0827.0,5.00,000.00,030.8,030.1,000.0,039.0,032.4,011.1,0000.0,0002.37,0004.26,0001.84
2024-05-26 23:19:00,SystemResetWarning,0827.1,4.99,000.00,030.8,030.1,000.0,039.0,032.5,011.5,0000.0,0002.40,0004.32,0001.85
2024-05-26 23:20:00,SystemResetWarning,0827.1,5.00,000.00,030.8,030.1,000.0,039.1,032.5,011.3,0000.0,0002.42,0004.46,0001.86
2024-05-26 23:21:00,SystemResetWarning,0827.0,5.00,000.00,030.8,030.1,000.0,039.1,032.5,011.3,0000.0,0002.41,0004.48,0001.85
2024-05-26 23:22:00,SystemResetWarning,0827.0,5.00,000.00,030.8,030.1,000.0,039.1,032.5,011.2,0000.0,0002.40,0004.46,0001.85
2024-05-26 23:23:00,SystemResetWarning,0827.0,5.00,000.00,030.8,030.1,000.0,039.1,032.5,011.2,0000.0,0002.44,0004.61,0001.85
2024-05-26 23:24:00,SystemResetWarning,0827.0,5.01,000.00,030.8,030.1,000.0,039.1,032.5,011.1,0000.0,0002.46,0004.75,0001.86
2024-05-26 23:25:00,SystemResetWarning,0827.1,5.00,000.00,030.8,030.1,000.0,039.1,032.5,011.0,0000.0,0002.46,0004.46,0001.86
2024-05-26 23:26:00,SystemResetWarning,0827.1,4.99,000.00,030.8,030.1,000.0,039.1,032.5,010.8,0000.0,0002.50,0004.81,0001.87
2024-05-26 23:27:00,SystemResetWarning,0827.1,5.00,000.00,030.8,030.1,000.0,039.1,032.5,010.9,0000.0,0002.51,0005.03,0001.87
2024-05-26 23:28:00,SystemResetWarning,0827.1,5.00,000.00,030.8,030.1,000.0,039.1,032.5,011.1,0000.0,0002.52,0005.14,0001.88
2024-05-26 23:29:00,SystemResetWarning,0827.2,5.00,000.00,030.9,030.1,000.0,039.1,032.5,011.0,0000.0,0002.56,0005.25,0001.89
2024-05-26 23:30:00,SystemResetWarning,0827.1,5.01,000.00,030.9,030.1,000.0,039.1,032.5,010.8,0000.0,0002.57,0005.28,0001.89
2024-05-26 23:31:00,SystemResetWarning,0827.1,5.01,000.00,030.9,030.1,000.0,039.1,032.5,010.9,0000.0,0002.55,0005.20,0001.89
2024-05-26 23:32:00,SystemResetWarning,0827.1,5.01,000.00,030.9,030.1,000.0,039.2,032.6,011.6,0000.0,0002.52,0004.96,0001.89
2024-05-26 23:33:00,SystemResetWarning,0827.1,5.00,000.00,030.9,030.2,000.0,039.2,032.5,011.3,0000.0,0002.52,0004.91,0001.90
2024-05-26 23:34:00,SystemResetWarning,0827.1,4.99,000.00,030.9,030.2,000.0,039.2,032.6,011.2,0000.0,0002.49,0004.89,0001.91
2024-05-26 23:35:00,SystemResetWarning,0827.1,4.99,000.00,030.9,030.2,000.0,039.2,032.6,011.2,0000.0,0002.47,0004.73,0001.91
2024-05-26 23:36:00,SystemResetWarning,0827.1,5.00,000.00,030.9,030.1,000.0,039.2,032.6,011.1,0000.0,0002.49,0004.62,0001.92
2024-05-26 23:37:00,SystemResetWarning,0827.1,4.99,000.00,030.9,030.2,000.0,039.2,032.6,011.1,0000.0,0002.46,0004.28,0001.92
2024-05-26 23:38:00,SystemResetWarning,0827.1,4.99,000.00,030.9,030.2,000.0,039.2,032.6,011.0,0000.0,0002.39,0003.91,0001.92
2024-05-26 23:39:00,SystemResetWarning,0827.1,5.02,000.00,030.9,030.2,000.0,039.2,032.6,011.1,0000.0,0002.35,0003.61,0001.90
2024-05-26 23:40:00,SystemResetWarning,0827.1,5.01,000.00,030.9,030.2,000.0,039.2,032.6,011.1,0000.0,0002.32,0003.48,0001.89
2024-05-26 23:41:00,SystemResetWarning,0827.1,4.99,000.00,030.9,030.2,000.0,039.2,032.6,010.7,0000.0,0002.30,0003.43,0001.90
2024-05-26 23:42:00,SystemResetWarning,0827.1,4.99,000.00,030.9,030.2,000.0,039.2,032.6,010.8,0000.0,0002.28,0003.44,0001.90
2024-05-26 23:43:00,SystemResetWarning,0827.1,5.00,000.00,030.9,030.2,000.0,039.2,032.6,011.0,0000.0,0002.33,0003.51,0001.92
2024-05-26 23:44:00,SystemResetWarning,0827.1,5.00,000.00,030.9,030.2,000.0,039.2,032.6,010.9,0000.0,0002.39,0003.64,0001.91
2024-05-26 23:45:00,SystemResetWarning,0827.1,5.01,000.00,031.0,030.2,000.0,039.3,032.6,011.3,0000.0,0002.42,0003.71,0001.91
2024-05-26 23:46:00,SystemResetWarning,0827.2,5.00,000.00,031.0,030.2,000.0,039.3,032.6,011.3,0000.0,0002.40,0003.68,0001.91
2024-05-26 23:47:00,SystemResetWarning,0827.1,5.01,000.00,031.0,030.2,000.0,039.3,032.6,011.5,0000.0,0002.39,0003.69,0001.91
2024-05-26 23:48:00,SystemResetWarning,0827.1,5.00,000.00,031.0,030.2,000.0,039.3,032.6,011.7,0000.0,0002.39,0003.66,0001.90
2024-05-26 23:49:00,SystemResetWarning,0827.1,5.00,000.00,031.0,030.2,000.0,039.3,032.6,011.2,0000.0,0002.41,0003.59,0001.91
2024-05-26 23:50:00,SystemResetWarning,0827.1,5.00,000.00,031.0,030.2,000.0,039.3,032.6,011.5,0000.0,0002.45,0003.72,0001.92
2024-05-26 23:51:00,SystemResetWarning,0827.1,4.99,000.00,031.0,030.2,000.0,039.3,032.6,011.4,0000.0,0002.46,0003.84,0001.92
2024-05-26 23:52:00,SystemResetWarning,0827.1,5.00,000.00,031.0,030.2,000.0,039.3,032.6,011.1,0000.0,0002.47,0003.96,0001.91
2024-05-26 23:53:00,SystemResetWarning,0827.1,5.00,000.00,031.0,030.2,000.0,039.3,032.7,010.9,0000.0,0002.43,0003.79,0001.89
2024-05-26 23:54:00,SystemResetWarning,0827.2,5.00,000.00,031.0,030.3,000.0,039.3,032.7,011.3,0000.0,0002.39,0003.70,0001.88
2024-05-26 23:55:00,SystemResetWarning,0827.1,5.00,000.00,031.0,030.3,000.0,039.3,032.7,011.3,0000.0,0002.32,0003.55,0001.88
2024-05-26 23:56:00,SystemResetWarning,0827.1,5.00,000.00,031.0,030.3,000.0,039.3,032.7,011.3,0000.0,0002.29,0003.50,0001.88
2024-05-26 23:57:00,SystemResetWarning,0827.1,5.00,000.00,031.0,030.3,000.0,039.3,032.7,011.3,0000.0,0002.28,0003.46,0001.88
2024-05-26 23:58:00,SystemResetWarning,0827.2,5.00,000.00,031.0,030.3,000.0,039.4,032.7,011.1,0000.0,0002.25,0003.41,0001.87
2024-05-26 23:59:00,SystemResetWarning,0827.1,4.99,000.00,031.1,030.3,000.0,039.4,032.7,011.1,0000.0,0002.26,0003.43,0001.87
